VK3ABC-13 Weather Reports


time (UTC)temp
C
wind
direction
speed
KPH
gust
KPH
rain 1hr
cm
rain 24hr
cm
rain mn
cm
humidity
%
barometer
mb
20260510204508 3 69 0.0 0.0 0.00 0.03 0.03 92 1030.1
20260510204010 3 70 0.0 0.0 0.00 0.03 0.03 92 1030.0
20260510203508 3 69 0.0 0.0 0.00 0.03 0.03 92 1029.9
20260510203010 3 71 0.0 0.0 0.00 0.03 0.03 92 1030.0
20260510202508 3 70 0.0 0.0 0.00 0.03 0.03 92 1029.9
20260510201508 3 71 0.0 0.0 0.00 0.03 0.03 91 1029.9
20260510201009 3 70 0.0 0.0 0.00 0.03 0.03 91 1029.9
20260510200011 3 70 0.0 0.0 0.00 0.03 0.03 91 1029.8
20260510195010 3 69 0.0 0.0 0.00 0.03 0.03 91 1029.7
20260510194011 3 69 0.0 0.0 0.00 0.03 0.03 91 1029.6
20260510193509 3 69 0.0 0.0 0.00 0.03 0.03 91 1029.6
20260510193011 3 70 0.0 0.0 0.00 0.03 0.03 91 1029.5
20260510192509 3 69 0.0 0.0 0.00 0.03 0.03 91 1029.4
20260510192010 3 69 0.0 0.0 0.00 0.03 0.03 91 1029.4
20260510191509 3 70 0.0 0.0 0.00 0.03 0.03 91 1029.4
20260510190508 3 71 0.0 0.0 0.03 0.03 0.03 91 1029.3
20260510185508 3 68 0.0 0.0 0.03 0.03 0.03 91 1029.3
20260510185010 3 69 0.0 0.0 0.03 0.03 0.03 91 1029.2
20260510184509 3 69 0.0 0.0 0.03 0.03 0.03 91 1029.2
20260510183509 3 69 0.0 0.0 0.03 0.03 0.03 91 1029.1
20260510182509 3 69 0.0 0.0 0.03 0.03 0.03 91 1028.9
20260510182010 3 70 0.0 0.0 0.03 0.03 0.03 91 1028.9
20260510181010 3 71 0.0 0.0 0.03 0.03 0.03 91 1028.9
20260510180508 3 70 0.0 0.0 0.00 0.00 0.00 91 1028.8
20260510180010 3 69 0.0 0.0 0.00 0.00 0.00 91 1028.8
20260510175509 3 71 0.0 0.0 0.00 0.00 0.00 91 1028.7
20260510175010 3 69 0.0 0.0 0.00 0.00 0.00 91 1028.7
20260510174509 3 68 0.0 0.0 0.00 0.00 0.00 91 1028.6
20260510173508 3 69 0.0 0.0 0.00 0.00 0.00 91 1028.6
20260510173013 3 68 0.0 0.0 0.00 0.00 0.00 91 1028.6
20260510172509 3 69 0.0 0.0 0.00 0.00 0.00 91 1028.6
20260510172010 3 71 0.0 0.0 0.00 0.00 0.00 91 1028.6
20260510171011 3 70 0.0 0.0 0.00 0.00 0.00 91 1028.6
20260510170011 4 69 0.0 0.0 0.00 0.00 0.00 91 1028.5
20260510165509 4 70 0.0 0.0 0.00 0.00 0.00 91 1028.5
20260510164509 4 71 0.0 0.0 0.00 0.00 0.00 91 1028.6
20260510164010 4 70 0.0 0.0 0.00 0.00 0.00 90 1028.6
20260510163508 4 68 0.0 0.0 0.00 0.00 0.00 90 1028.6
20260510163010 4 69 0.0 0.0 0.00 0.00 0.00 90 1028.7
20260510162509 4 69 0.0 0.0 0.00 0.00 0.00 90 1028.8
20260510161509 5 69 0.0 0.0 0.00 0.00 0.00 90 1028.8
20260510160509 5 69 0.0 0.0 0.00 0.00 0.00 91 1028.8
20260510160011 5 70 0.0 0.0 0.00 0.00 0.00 91 1028.8
20260510155508 5 68 0.0 0.0 0.00 0.00 0.00 91 1028.9
20260510155009 5 69 0.0 0.0 0.00 0.00 0.00 91 1028.8
20260510154509 5 71 0.0 0.0 0.00 0.00 0.00 90 1028.9
20260510154010 5 69 0.0 0.0 0.00 0.03 0.00 90 1028.8
20260510153509 5 71 0.0 0.0 0.00 0.03 0.00 90 1028.8
20260510153010 5 70 0.0 0.0 0.00 0.03 0.00 90 1028.9
20260510152508 5 68 0.0 0.0 0.00 0.03 0.00 90 1028.8
20260510152010 5 69 0.0 0.0 0.00 0.03 0.00 90 1028.8
20260510151509 5 69 0.0 0.0 0.00 0.03 0.00 90 1028.8
20260510151010 5 69 0.0 0.0 0.00 0.03 0.00 90 1028.8
20260510150509 5 69 0.0 0.0 0.00 0.03 0.00 90 1028.8
20260510150019 5 71 0.0 0.0 0.00 0.03 0.00 90 1028.9
20260510145517 5 69 0.0 0.0 0.00 0.03 0.00 90 1028.8
20260510145018 5 69 0.0 0.0 0.00 0.03 0.00 90 1028.9
20260510144018 5 69 0.0 0.0 0.00 0.03 0.00 90 1028.9
20260510143517 5 68 0.0 0.0 0.00 0.03 0.00 90 1028.9
20260510143018 5 69 0.0 0.0 0.00 0.03 0.00 90 1028.8
20260510142517 6 69 0.0 0.0 0.00 0.03 0.00 90 1028.9
20260510142018 6 69 0.0 0.0 0.00 0.03 0.00 90 1028.9
20260510141513 6 69 0.0 0.0 0.00 0.03 0.00 90 1028.9
20260510140019 6 71 0.0 0.0 0.00 0.03 0.00 89 1028.9
20260510135517 6 69 0.0 0.0 0.00 0.03 0.03 89 1029.0
20260510134517 6 71 0.0 0.0 0.00 0.03 0.03 89 1029.1
20260510134018 6 69 0.0 0.0 0.00 0.03 0.03 89 1029.1
20260510133018 6 69 0.0 0.0 0.00 0.03 0.03 89 1029.1
20260510132517 6 68 0.0 0.0 0.00 0.03 0.03 89 1029.1
20260510132018 6 69 0.0 0.0 0.00 0.03 0.03 89 1029.1
20260510131517 6 69 0.0 0.0 0.00 0.03 0.03 89 1029.1
20260510131018 6 69 0.0 0.0 0.00 0.03 0.03 89 1029.1
20260510130516 6 69 0.0 0.0 0.00 0.03 0.03 89 1029.1
20260510130019 6 69 0.0 0.0 0.00 0.03 0.03 89 1029.2
20260510125517 6 69 0.0 0.0 0.00 0.03 0.03 88 1029.2
20260510125019 6 70 0.0 0.0 0.00 0.03 0.03 89 1029.2
20260510124517 6 70 0.0 0.0 0.00 0.03 0.03 88 1029.2
20260510124018 7 69 0.0 0.0 0.00 0.03 0.03 88 1029.2
20260510123516 7 71 0.0 0.0 0.00 0.03 0.03 88 1029.2
20260510123018 7 68 0.0 0.0 0.00 0.03 0.03 88 1029.2
20260510122517 7 71 0.0 0.0 0.00 0.03 0.03 88 1029.3
20260510122018 7 69 0.0 0.0 0.00 0.03 0.03 88 1029.3
20260510121517 7 71 0.0 0.0 0.00 0.03 0.03 88 1029.3
20260510121018 7 70 0.0 0.0 0.00 0.03 0.03 88 1029.3
20260510120517 7 69 0.0 0.0 0.00 0.03 0.03 88 1029.2
20260510120019 7 69 0.0 0.0 0.00 0.03 0.03 88 1029.2
20260510115517 7 69 0.0 0.0 0.00 0.03 0.03 87 1029.3
20260510115018 7 75 0.0 0.0 0.00 0.03 0.03 88 1029.3
20260510114517 7 69 0.0 0.0 0.00 0.03 0.03 87 1029.3
20260510113516 7 69 0.0 0.0 0.00 0.03 0.03 87 1029.2
20260510113018 7 69 0.0 0.0 0.00 0.03 0.03 87 1029.1
20260510112517 7 69 0.0 0.0 0.00 0.03 0.03 87 1029.1
20260510112018 8 68 0.0 0.0 0.00 0.03 0.03 86 1029.0
20260510111517 8 71 0.0 0.0 0.00 0.03 0.03 87 1029.0
20260510111018 8 69 0.0 0.0 0.00 0.03 0.03 87 1029.0
20260510110517 8 71 0.0 0.0 0.00 0.03 0.03 86 1029.0
20260510110019 8 69 0.0 0.0 0.00 0.03 0.03 86 1028.9
20260510105517 8 69 0.0 0.0 0.00 0.03 0.03 86 1029.0
20260510104517 8 69 0.0 0.0 0.00 0.03 0.03 86 1029.0
20260510104018 8 75 0.0 0.0 0.00 0.03 0.03 86 1028.8
20260510103517 8 69 0.0 0.0 0.00 0.03 0.03 86 1028.8
20260510103018 9 70 0.0 0.0 0.00 0.03 0.03 86 1028.8
20260510102516 9 69 0.0 0.0 0.00 0.03 0.03 85 1028.8
20260510102018 9 69 0.0 0.0 0.00 0.03 0.03 85 1028.9
20260510101517 9 69 0.0 0.0 0.00 0.03 0.03 85 1028.8
20260510100517 9 71 0.0 0.0 0.00 0.03 0.03 85 1028.8
20260510100019 10 69 0.0 0.0 0.00 0.03 0.03 85 1028.8
20260510095516 10 68 0.0 0.0 0.00 0.03 0.03 84 1028.7
20260510095018 10 71 0.0 0.0 0.00 0.03 0.03 84 1028.7
20260510094516 10 69 0.0 0.0 0.00 0.03 0.03 84 1028.7
20260510094018 10 68 0.0 0.0 0.00 0.03 0.03 85 1028.7
20260510093517 10 69 0.0 0.0 0.00 0.03 0.03 85 1028.7
20260510093018 11 75 0.0 0.0 0.00 0.03 0.03 85 1028.6
20260510092517 11 69 0.0 0.0 0.00 0.03 0.03 85 1028.6
20260510092018 11 70 0.0 0.0 0.00 0.03 0.03 84 1028.6
20260510090516 11 71 0.0 0.0 0.00 0.03 0.03 84 1028.5
20260510090019 11 69 0.0 3.2 0.00 0.03 0.03 83 1028.4
20260510085516 11 64 0.0 0.0 0.00 0.03 0.03 83 1028.3
20260510085017 11 64 0.0 0.0 0.00 0.03 0.03 82 1028.3
20260510084516 11 64 0.0 0.0 0.00 0.03 0.03 80 1028.3
20260510084018 11 64 0.0 0.0 0.00 0.03 0.03 79 1028.3
20260510083517 11 63 0.0 0.0 0.00 0.03 0.03 77 1028.2
20260510083018 11 62 0.0 0.0 0.00 0.03 0.03 74 1028.2
20260510082517 11 62 0.0 0.0 0.00 0.03 0.03 73 1028.1
20260510082018 11 68 0.0 0.0 0.00 0.03 0.03 72 1028.1
20260510081516 12 62 0.0 0.0 0.00 0.03 0.03 72 1028.0
20260510081018 12 63 0.0 0.0 0.00 0.03 0.03 71 1028.0
20260510080019 12 64 0.0 0.0 0.00 0.03 0.03 71 1027.9
20260510075017 13 62 0.0 0.0 0.00 0.03 0.03 70 1027.8
20260510074516 13 66 0.0 0.0 0.00 0.03 0.03 70 1027.8
20260510074017 13 64 0.0 0.0 0.00 0.03 0.03 70 1027.7
20260510073516 14 62 0.0 0.0 0.00 0.03 0.03 70 1027.6
20260510073018 14 62 0.0 0.0 0.00 0.03 0.03 71 1027.6
20260510072516 15 63 0.0 0.0 0.00 0.03 0.03 71 1027.6
20260510072018 15 62 0.0 0.0 0.00 0.03 0.03 71 1027.6
20260510071516 15 62 0.0 0.0 0.00 0.03 0.03 71 1027.5
20260510070516 15 62 0.0 0.0 0.00 0.03 0.03 70 1027.5
20260510070018 15 65 0.0 3.2 0.00 0.03 0.03 70 1027.4
20260510065017 15 78 0.0 0.0 0.00 0.03 0.03 69 1027.4
20260510064516 15 81 0.0 0.0 0.00 0.03 0.03 68 1027.4
20260510064017 15 78 0.0 0.0 0.00 0.03 0.03 68 1027.4
20260510063516 16 81 0.0 0.0 0.00 0.03 0.03 67 1027.3
20260510063018 16 80 0.0 0.0 0.00 0.03 0.03 67 1027.3
20260510062516 16 80 0.0 0.0 0.00 0.03 0.03 66 1027.3
20260510062017 16 80 0.0 0.0 0.00 0.03 0.03 66 1027.3
20260510061516 16 78 0.0 0.0 0.00 0.03 0.03 65 1027.3
20260510061018 16 78 0.0 0.0 0.00 0.03 0.03 65 1027.3
20260510060517 16 78 0.0 4.8 0.00 0.03 0.03 64 1027.3
20260510060018 17 68 0.0 1.6 0.00 0.03 0.03 63 1027.3
20260510055516 17 68 0.0 3.2 0.00 0.03 0.03 63 1027.2
20260510055018 17 99 0.0 3.2 0.00 0.03 0.03 62 1027.2
20260510053516 17 101 3.2 4.8 0.00 0.03 0.03 61 1027.1
20260510053017 17 104 1.6 4.8 0.00 0.03 0.03 62 1027.1
20260510052516 17 97 0.0 1.6 0.00 0.03 0.03 60 1027.1
20260510052017 17 87 0.0 1.6 0.00 0.03 0.03 60 1027.1
20260510051517 17 91 1.6 4.8 0.00 0.03 0.03 61 1027.0
20260510051018 18 88 0.0 0.0 0.00 0.03 0.03 59 1027.0
20260510050517 18 97 0.0 0.0 0.00 0.03 0.03 57 1027.0
20260510050018 18 98 0.0 0.0 0.00 0.03 0.03 57 1027.0
20260510045516 19 96 0.0 1.6 0.00 0.03 0.03 56 1027.0
20260510045017 20 107 0.0 1.6 0.00 0.03 0.03 55 1027.0
20260510044516 20 96 0.0 4.8 0.00 0.03 0.03 54 1027.0
20260510043018 20 125 6.4 9.7 0.00 0.03 0.03 57 1027.0
20260510042517 20 129 4.8 11.3 0.00 0.03 0.03 57 1027.0
20260510042017 20 134 4.8 9.7 0.00 0.03 0.03 59 1027.0
20260510041517 19 99 1.6 14.5 0.00 0.03 0.03 59 1027.1
20260510040019 18 129 1.6 8.0 0.00 0.03 0.03 61 1027.2
20260510035516 18 88 1.6 8.0 0.00 0.03 0.03 59 1027.3
20260510035018 18 130 9.7 12.9 0.00 0.03 0.03 61 1027.3
20260510034516 18 119 0.0 0.0 0.00 0.03 0.03 59 1027.3
20260510034017 18 130 0.0 12.9 0.00 0.03 0.03 60 1027.3
20260510033516 18 138 3.2 8.0 0.00 0.03 0.03 61 1027.3
20260510033018 18 142 1.6 4.8 0.00 0.03 0.03 61 1027.3
20260510032516 18 99 1.6 8.0 0.00 0.03 0.03 62 1027.3
20260510032018 17 141 3.2 9.7 0.00 0.03 0.03 63 1027.3
20260510031517 17 154 4.8 11.3 0.00 0.03 0.03 63 1027.2
20260510030516 17 133 1.6 9.7 0.00 0.03 0.03 64 1027.4
20260510025516 17 136 1.6 4.8 0.00 0.03 0.03 65 1027.5
20260510025018 17 161 0.0 8.0 0.00 0.03 0.03 64 1027.5
20260510024017 17 98 4.8 14.5 0.00 0.03 0.03 64 1027.7
20260510023517 17 128 6.4 12.9 0.00 0.03 0.03 65 1027.7
20260510022516 17 194 0.0 0.0 0.00 0.03 0.03 66 1027.8
20260510022018 17 188 0.0 0.0 0.00 0.03 0.03 67 1027.9
20260510021018 16 182 0.0 0.0 0.00 0.03 0.03 68 1028.1
20260510020516 16 176 0.0 0.0 0.00 0.03 0.03 68 1028.2
20260510020018 16 174 0.0 0.0 0.00 0.03 0.03 69 1028.2
20260510015516 16 183 0.0 1.6 0.00 0.03 0.03 69 1028.3
20260510015018 16 141 0.0 4.8 0.00 0.03 0.03 68 1028.4
20260510014018 16 95 0.0 4.8 0.00 0.03 0.03 71 1028.5
20260510013516 16 82 0.0 0.0 0.00 0.03 0.03 71 1028.5
20260510013018 15 81 0.0 3.2 0.00 0.03 0.03 72 1028.6
20260510012516 15 81 0.0 1.6 0.00 0.03 0.03 72 1028.6
20260510012017 15 85 0.0 3.2 0.00 0.03 0.03 73 1028.7
20260510011516 15 122 1.6 3.2 0.00 0.03 0.03 75 1028.7
20260510010516 15 101 1.6 4.8 0.00 0.03 0.03 77 1028.7
20260510005516 15 134 1.6 4.8 0.00 0.03 0.03 81 1028.6
20260510005017 15 108 3.2 9.7 0.00 0.03 0.03 82 1028.6
20260510004516 15 138 1.6 8.0 0.00 0.03 0.03 84 1028.6
20260510004018 14 116 1.6 8.0 0.00 0.03 0.03 85 1028.6
20260510003516 14 126 0.0 0.0 0.00 0.03 0.03 87 1028.6
20260510003017 14 127 0.0 0.0 0.00 0.03 0.03 88 1028.6
20260510002516 14 128 0.0 3.2 0.00 0.03 0.03 89 1028.6
20260510002017 14 129 3.2 9.7 0.00 0.03 0.03 91 1028.6
20260510001516 14 122 0.0 3.2 0.00 0.03 0.03 92 1028.5
20260510000517 14 123 1.6 9.7 0.00 0.03 0.03 92 1028.6
20260510000019 14 129 3.2 8.0 0.00 0.03 0.03 92 1028.6
20260509235516 14 145 0.0 3.2 0.00 0.03 0.03 92 1028.5
20260509235018 13 147 0.0 3.2 0.00 0.03 0.03 92 1028.5
20260509234516 13 150 0.0 3.2 0.00 0.03 0.03 92 1028.5
20260509234017 13 144 1.6 3.2 0.00 0.03 0.03 92 1028.5
20260509233516 13 152 0.0 1.6 0.00 0.03 0.03 92 1028.4
20260509233017 13 197 0.0 0.0 0.00 0.03 0.03 92 1028.4
20260509231516 13 193 0.0 0.0 0.00 0.03 0.03 92 1028.4
20260509231018 13 192 0.0 0.0 0.00 0.03 0.03 92 1028.4
20260509230516 13 190 0.0 0.0 0.00 0.03 0.03 92 1028.4
20260509230018 13 191 0.0 0.0 0.00 0.03 0.03 92 1028.4
20260509225516 13 193 0.0 0.0 0.00 0.03 0.03 92 1028.3
20260509225017 12 198 0.0 0.0 0.00 0.03 0.03 92 1028.3
20260509224017 12 195 0.0 0.0 0.00 0.03 0.03 92 1028.3
20260509223516 12 198 0.0 0.0 0.00 0.03 0.03 92 1028.2
20260509222516 12 197 0.0 0.0 0.00 0.03 0.03 92 1028.1
20260509221516 12 191 0.0 0.0 0.00 0.03 0.03 92 1028.0
20260509221017 12 193 0.0 0.0 0.00 0.03 0.03 92 1027.9
20260509220516 12 193 0.0 0.0 0.00 0.03 0.03 92 1027.9
20260509215516 12 192 0.0 0.0 0.00 0.03 0.03 92 1027.7
20260509215017 12 197 0.0 0.0 0.00 0.03 0.03 92 1027.7
20260509214516 12 193 0.0 0.0 0.00 0.03 0.03 92 1027.6
20260509214017 12 199 0.0 0.0 0.00 0.03 0.03 92 1027.5
20260509213515 11 194 0.0 0.0 0.00 0.03 0.03 92 1027.4
20260509213017 11 191 0.0 0.0 0.00 0.03 0.03 92 1027.4
20260509212516 11 202 0.0 1.6 0.00 0.03 0.03 91 1027.2
20260509212017 11 192 0.0 3.2 0.00 0.03 0.03 91 1027.1
20260509211516 11 192 0.0 1.6 0.00 0.03 0.03 91 1027.1
20260509211018 11 189 0.0 0.0 0.00 0.03 0.03 91 1027.1
20260509210515 11 187 0.0 0.0 0.00 0.05 0.03 91 1027.1
20260509210018 11 190 0.0 0.0 0.00 0.05 0.03 91 1027.1
20260509205516 11 191 0.0 0.0 0.00 0.05 0.03 91 1027.0
20260509205017 11 188 0.0 0.0 0.00 0.05 0.03 91 1026.9